Jordan, MT

11:02 PM MDT on July 25, 2017 (GMT -0600)
Jordan

Weather History for KJDN - April, 2013

Change the Weather History Date:

Tuesday, April 2, 2013

  Actual Average Record
Temperature  
Mean Temperature 43 °F 40 °F  
Max Temperature 66 °F 53 °F 78 °F (1943)
Min Temperature 19 °F 27 °F -13 °F (1936)
Degree Days  
Heating Degree Days 22 25  
Month to date heating degree days 52 50  
Since 1 July heating degree days 6578 7152  
Cooling Degree Days 0 0  
Month to date cooling degree days 0 0  
Year to date cooling degree days 0 0  
Moisture  
Dew Point 23 °F    
Average Humidity 56    
Maximum Humidity 92    
Minimum Humidity 19    
Precipitation  
Precipitation 0.00 in 0.02 in 0.60 in (1940)
Month to date precipitation 0.00 0.05  
Year to date precipitation 1.14 1.05  
Snow  
Snow 0.00 in - - ()
Month to date snowfall 0.0  
Since 1 July snowfall 0.0  
Snow Depth 0.00 in    
Sea Level Pressure  
Sea Level Pressure 30.07 in    
Wind  
Wind Speed 6 mph (SE)    
Max Wind Speed 17 mph    
Max Gust Speed 23 mph    
T = Trace of Precipitation, MM = Missing Value Source: NWS Daily Summary

Daily Weather History Graph

Daily Weather History Graph

Search for Another Location

Airport or City:

Trip Planner

Search our weather history database for the weather conditions in past years. The results will help you decide how hot, cold, wet, or windy it might be!

Date:

Astronomy

Apr. 02, 2013 Rise Set
Actual Time 6:43 AM MDT 7:39 PM MDT
Civil Twilight 6:12 AM MDT 8:10 PM MDT
Nautical Twilight 5:35 AM MDT 8:47 PM MDT
Astronomical Twilight 4:56 AM MDT 9:27 PM MDT
Moon 2:03 AM MDT (4/2) 11:21 AM MDT (4/2)
Length of Visible Light 13h 57m
Length of Day
12h 55m
Waning Gibbous, 55% of the Moon is Illuminated
Apr 2
Waning Gibbous
Apr 2
Last Quarter
Apr 10
New
Apr 18
First Quarter
Apr 25
Full

Hourly Weather History & Observations

Time (MDT) Temp. Windchill Dew Point Humidity Pressure Visibility Wind Dir Wind Speed Gust Speed Precip Events Conditions
12:48 AM 28.9 °F - 25.0 °F 85% 30.19 in - Calm Calm - N/A   Unknown
1:48 AM 25.0 °F - 21.9 °F 88% 30.19 in - Calm Calm - N/A   Unknown
2:48 AM 26.1 °F - 23.0 °F 88% 30.18 in - Calm Calm - N/A   Unknown
3:48 AM 21.0 °F - 18.0 °F 88% 30.17 in - Calm Calm - N/A   Unknown
4:48 AM 21.9 °F 15.7 °F 19.0 °F 89% 30.18 in - NNE 4.6 mph - N/A   Unknown
5:48 AM 19.9 °F - 17.1 °F 89% 30.19 in - Calm Calm - N/A   Unknown
6:48 AM 19.0 °F - 16.0 °F 88% 30.21 in - Calm Calm - N/A   Unknown
7:48 AM 25.0 °F - 21.9 °F 88% 30.20 in - Calm Calm - N/A   Unknown
8:48 AM 30.9 °F 26.2 °F 26.1 °F 82% 30.19 in - East 4.6 mph - N/A   Unknown
9:48 AM 37.9 °F 33.5 °F 28.0 °F 68% 30.18 in - ESE 5.8 mph - N/A   Unknown
10:48 AM 45.0 °F 39.3 °F 27.0 °F 49% 30.15 in - SE 11.5 mph - N/A   Unknown
11:48 AM 50.0 °F - 27.0 °F 41% 30.12 in - SE 13.8 mph 19.6 mph N/A   Unknown
12:48 PM 55.9 °F - 26.1 °F 32% 30.08 in - SSE 13.8 mph 21.9 mph N/A   Unknown
1:48 PM 60.1 °F - 25.0 °F 26% 30.05 in - SE 16.1 mph 20.7 mph N/A   Unknown
2:48 PM 63.0 °F - 24.1 °F 23% 30.02 in - South 15.0 mph 23.0 mph N/A   Unknown
3:48 PM 63.0 °F - 21.9 °F 21% 30.00 in - SSW 10.4 mph 18.4 mph N/A   Unknown
4:48 PM 66.0 °F - 23.0 °F 20% 29.97 in - SSW 10.4 mph 16.1 mph N/A   Unknown
5:48 PM 64.9 °F - 21.9 °F 19% 29.96 in - Variable 5.8 mph - N/A   Unknown
6:48 PM 63.0 °F - 23.0 °F 22% 29.95 in - South 6.9 mph - N/A   Unknown
7:48 PM 53.1 °F - 25.0 °F 34% 29.94 in - East 5.8 mph - N/A   Unknown
8:48 PM 50.0 °F - 25.0 °F 38% 29.93 in - SE 3.5 mph - N/A   Unknown
9:48 PM 45.0 °F 42.6 °F 26.1 °F 48% 29.93 in - East 4.6 mph - N/A   Unknown
10:48 PM 48.0 °F - 26.1 °F 42% 29.90 in - SSE 6.9 mph - N/A   Unknown
11:48 PM 50.0 °F - 26.1 °F 39% 29.86 in - SSE 10.4 mph - N/A   Unknown